Location: Santa Maria di Sala
(45.5070°N, 12.0300°E)
Time: 06:19:43
(UTC+01:00)

ISS - Visible Passes

Search period start: 27 January 2022 00:00
Search period end: 06 February 2022 00:00
Orbit: 413 x 422 km, 51.6° (Epoch: 26 January)

Date Brightness Start Highest point End Pass type
(mag) Time Alt. Az. Time Alt. Az. Time Alt. Az.
27 Jan -2.3 19:06:01 10° NW 19:08:30 28° N 19:08:30 28° N visible
28 Jan -2.4 18:17:51 10° WNW 18:20:46 27° N 18:22:26 18° NE visible
28 Jan -0.8 19:54:44 10° NW 19:55:22 15° NW 19:55:22 15° NW visible
29 Jan -2.8 19:06:40 10° NW 19:09:19 36° N 19:09:19 36° N visible
30 Jan -2.8 18:18:34 10° NW 18:21:38 32° NNE 18:23:19 20° ENE visible
30 Jan -1.0 19:55:17 10° WNW 19:56:15 18° WNW 19:56:15 18° WNW visible
31 Jan -3.8 19:07:10 10° WNW 19:10:20 70° N 19:10:20 70° N visible
01 Feb -3.5 18:19:04 10° NW 18:22:20 51° NNE 18:24:29 19° E visible
01 Feb -1.1 19:56:01 10° WNW 19:57:26 20° W 19:57:26 20° W visible
02 Feb -3.0 19:07:43 10° WNW 19:10:56 48° SW 19:11:43 38° S visible
03 Feb -3.7 18:19:30 10° WNW 18:22:50 77° SSW 18:26:10 10° SE visible
03 Feb -0.7 19:57:42 10° WSW 19:59:06 12° SW 19:59:08 12° SW visible
04 Feb -1.2 19:08:39 10° W 19:11:08 20° SW 19:13:37 10° S visible
05 Feb -1.9 18:20:07 10° WNW 18:23:06 31° SW 18:26:05 10° SSE visible
